Chillicothe, MO

1:24 PM CDT on October 19, 2019 (GMT -0500)
Chillicothe

Weather History for KCDJ - August, 2019

Change the Weather History Date:

Friday, August 16, 2019

  Actual Average (WUND) Record (WUND)
Temperature  
Mean Temperature 75 °F -  
Max Temperature 82 °F - - (-1)
Min Temperature 68 °F - - (-1)
Cooling Degree Days 10    
Growing Degree Days 25 (Base 50)    
Moisture  
Dew Point 69 °F    
Average Humidity 83    
Maximum Humidity 96    
Minimum Humidity 62    
Precipitation  
Precipitation 0.03 in - - ()
Sea Level Pressure  
Sea Level Pressure 29.89 in    
Wind  
Wind Speed 3 mph (SSW)    
Max Wind Speed 10 mph    
Max Gust Speed 20 mph    
Averages and records for this station are not official NWS values.
T = Trace of Precipitation, MM = Missing Value Source: NWS Daily Summary

Daily Weather History Graph

Daily Weather History Graph

Search for Another Location

Airport or City:

Astronomy

Aug. 16, 2019 Rise Set
Actual Time 6:27 AM CDT 8:09 PM CDT
Civil Twilight 5:58 AM CDT 8:38 PM CDT
Nautical Twilight 5:23 AM CDT 9:13 PM CDT
Astronomical Twilight 4:45 AM CDT 9:50 PM CDT
Moon 9:09 PM CDT (8/16) 7:19 AM CDT (8/16)
Length of Visible Light 14h 40m
Length of Day
13h 42m
Full, 99% of the Moon is Illuminated
Aug 16
Full
Aug 23
Last Quarter
Aug 30
New
Sep 5
First Quarter
Sep 13
Full

Hourly Weather History & Observations

Time (CDT) Temp. Heat Index Dew Point Humidity Pressure Visibility Wind Dir Wind Speed Gust Speed Precip Events Conditions
12:52 AM 69.1 °F - 68.0 °F 96% 29.88 in - NNE 3.5 mph - N/A   Unknown
1:52 AM 68.0 °F - 66.9 °F 96% 29.88 in - North 3.5 mph - N/A   Unknown
2:52 AM 69.1 °F - 68.0 °F 96% 29.88 in - South 3.5 mph - 0.02 in   Unknown
3:52 AM 69.1 °F - 68.0 °F 96% 29.88 in - Calm Calm - 0.01 in   Unknown
6:52 AM 69.1 °F - 66.9 °F 93% 29.90 in - South 4.6 mph - N/A   Unknown
7:52 AM 70.0 °F - 68.0 °F 93% 29.90 in - Calm Calm - N/A   Unknown
8:52 AM 71.1 °F - 68.0 °F 90% 29.93 in - Calm Calm - N/A   Unknown
9:52 AM 71.1 °F - 68.0 °F 90% 29.97 in - Variable 3.5 mph - N/A   Unknown
10:52 AM 73.0 °F - 68.0 °F 84% 29.96 in - Variable 3.5 mph - N/A   Unknown
11:52 AM 77.0 °F - 70.0 °F 79% 29.94 in - Variable 3.5 mph - N/A   Unknown
2:52 PM 81.0 °F 84.4 °F 70.0 °F 69% 29.87 in - SSW 10.4 mph 19.6 mph N/A   Unknown
3:52 PM 81.0 °F 84.1 °F 69.1 °F 67% 29.86 in - SW 8.1 mph - N/A   Unknown
4:52 PM 82.0 °F 84.9 °F 68.0 °F 62% 29.86 in - SSW 10.4 mph 18.4 mph N/A   Unknown
5:52 PM 82.0 °F 84.9 °F 68.0 °F 62% 29.86 in - SW 4.6 mph - N/A   Unknown
6:52 PM 82.0 °F 85.9 °F 70.0 °F 67% 29.84 in - Calm Calm - N/A   Unknown
7:52 PM 78.1 °F - 71.1 °F 79% 29.85 in - Calm Calm - N/A   Unknown
8:52 PM 75.0 °F - 71.1 °F 87% 29.86 in - Calm Calm - N/A   Unknown
10:52 PM 72.0 °F - 70.0 °F 93% 29.88 in - Calm Calm - N/A   Unknown
11:52 PM 73.0 °F - 69.1 °F 87% 29.87 in - Calm Calm - N/A   Unknown